Location: Peterborough
(44.3091°N, 78.3197°W)
Time: 11:39:03
(UTC-04:00)

Explorer 11/Cluster Stage 4 - Visible Passes

Search period start: 25 July 2024 00:00
Search period end: 04 August 2024 00:00
Orbit: 465 x 1214 km, 28.8° (Epoch: 25 July)

Date Brightness Start Highest point End Pass type
(mag) Time Alt. Az. Time Alt. Az. Time Alt. Az.
28 Jul 9.0 05:16:25 10° SSW 05:20:44 16° SSE 05:24:46 10° SE visible
29 Jul 8.9 04:57:36 10° SSW 05:02:21 17° SSE 05:06:48 10° SE visible
30 Jul 8.9 04:39:37 12° SSW 04:43:55 19° SSE 04:48:44 10° SE visible
31 Jul 8.8 04:22:13 15° SSW 04:25:28 20° SSE 04:30:36 10° SE visible
01 Aug 8.7 04:04:47 18° S 04:06:59 21° SSE 04:12:22 10° ESE visible
02 Aug 8.6 03:47:24 21° S 03:48:29 21° SSE 03:54:03 10° ESE visible
03 Aug 8.6 03:30:00 22° SSE 03:30:00 22° SSE 03:35:41 10° ESE visible
03 Aug 8.5 05:11:37 10° SW 05:17:36 24° S 05:23:28 10° SE visible
